Hill City, KS

2:46 AM CDT on July 24, 2017 (GMT -0500)
Hill City Municipal

Weather History for KHLC - December, 2014

Change the Weather History Date:

Friday, December 19, 2014

  Actual Average Record
Temperature  
Mean Temperature 40 °F 29 °F  
Max Temperature 52 °F 42 °F 67 °F (1941)
Min Temperature 28 °F 17 °F -13 °F (1989)
Degree Days  
Heating Degree Days 25    
Moisture  
Dew Point 28 °F    
Average Humidity 81    
Maximum Humidity 100    
Minimum Humidity 37    
Precipitation  
Precipitation 0.00 in 0.01 in 0.31 in (2006)
Month to date precipitation 0.27 0.49  
Year to date precipitation 21.72 22.72  
Sea Level Pressure  
Sea Level Pressure 30.16 in    
Wind  
Wind Speed 5 mph (WSW)    
Max Wind Speed 12 mph    
Max Gust Speed -    
Visibility 6 miles    
Events Fog    
T = Trace of Precipitation, MM = Missing Value Source: NWS Daily Summary

Daily Weather History Graph

Daily Weather History Graph

Search for Another Location

Airport or City:

Trip Planner

Search our weather history database for the weather conditions in past years. The results will help you decide how hot, cold, wet, or windy it might be!

Date:

Astronomy

Dec. 19, 2014 Rise Set
Actual Time 7:54 AM CST 5:18 PM CST
Civil Twilight 7:24 AM CST 5:48 PM CST
Nautical Twilight 6:50 AM CST 6:22 PM CST
Astronomical Twilight 6:17 AM CST 6:55 PM CST
Moon 5:11 AM CST (12/19) 3:41 PM CST (12/19)
Length of Visible Light 10h 24m
Length of Day
9h 23m
Waning Crescent, 7% of the Moon is Illuminated
Dec 19
Waning Crescent
Dec 21
New
Dec 28
First Quarter
Jan 4
Full
Jan 13
Last Quarter

Hourly Weather History & Observations

Time (CST) Temp. Windchill Dew Point Humidity Pressure Visibility Wind Dir Wind Speed Gust Speed Precip Events Conditions
12:53 AM 33.1 °F 28.7 °F 28.9 °F 85% 30.24 in 10.0 mi South 4.6 mph - N/A   Overcast
1:51 AM 33.8 °F 30.8 °F 28.4 °F 81% 30.17 in 9.0 mi WSW 3.5 mph - N/A   Overcast
1:53 AM 33.1 °F 30.0 °F 28.9 °F 85% 30.23 in 9.0 mi SW 3.5 mph - N/A   Overcast
2:27 AM 33.1 °F - 28.9 °F 85% 30.17 in 9.0 mi Calm Calm - N/A   Overcast
2:53 AM 33.1 °F - 28.9 °F 85% 30.22 in 9.0 mi Calm Calm - N/A   Overcast
3:53 AM 32.0 °F 28.7 °F 28.9 °F 88% 30.21 in 8.0 mi East 3.5 mph - N/A   Overcast
4:25 AM 32.0 °F - 30.0 °F 92% 30.15 in 8.0 mi Calm Calm - N/A   Overcast
4:53 AM 33.1 °F - 30.0 °F 89% 30.20 in 8.0 mi Calm Calm - N/A   Overcast
5:53 AM 33.1 °F 27.7 °F 30.0 °F 89% 30.19 in 7.0 mi WSW 5.8 mph - N/A   Overcast
6:26 AM 32.0 °F 26.4 °F 30.0 °F 92% 30.14 in 5.0 mi West 5.8 mph - N/A   Overcast
6:53 AM 32.0 °F 26.4 °F 30.0 °F 92% 30.20 in 3.0 mi West 5.8 mph - N/A   Overcast
7:05 AM 30.9 °F 24.3 °F 30.0 °F 96% 30.14 in 2.0 mi West 6.9 mph - N/A   Overcast
7:12 AM 30.9 °F 24.3 °F 30.0 °F 96% 30.14 in 1.5 mi West 6.9 mph - N/A   Overcast
7:21 AM 30.9 °F 24.3 °F 28.9 °F 92% 30.14 in 1.0 mi West 6.9 mph - N/A   Overcast
7:31 AM 30.9 °F 25.2 °F 28.9 °F 92% 30.14 in 0.8 mi WSW 5.8 mph - N/A   Overcast
7:53 AM 30.0 °F 24.1 °F 28.9 °F 96% 30.21 in 0.5 mi West 5.8 mph - N/A Fog Light Freezing Fog
8:12 AM 30.0 °F 21.7 °F 28.9 °F 96% 30.15 in 0.2 mi West 9.2 mph - N/A Fog Light Freezing Fog
8:48 AM 28.4 °F 21.2 °F 26.6 °F 93% 30.16 in 0.5 mi West 6.9 mph - N/A Fog Light Freezing Fog
8:53 AM 28.0 °F 19.3 °F 27.0 °F 96% 30.22 in 0.5 mi West 9.2 mph - N/A Fog Light Freezing Fog
9:02 AM 28.0 °F 21.7 °F 27.0 °F 96% 30.16 in 0.2 mi WSW 5.8 mph - N/A Fog Light Freezing Fog
9:53 AM 28.9 °F 25.2 °F 28.0 °F 96% 30.24 in 0.2 mi West 3.5 mph - N/A Fog Light Freezing Fog
10:01 AM 28.9 °F 25.2 °F 28.0 °F 96% 30.18 in 0.8 mi West 3.5 mph - N/A   Overcast
10:16 AM 28.9 °F 23.9 °F 28.9 °F 100% 30.18 in 1.5 mi WSW 4.6 mph - N/A   Overcast
10:22 AM 28.9 °F 23.9 °F 28.0 °F 96% 30.18 in 3.0 mi WSW 4.6 mph - N/A   Overcast
10:53 AM 30.9 °F 27.5 °F 28.0 °F 89% 30.24 in 9.0 mi Variable 3.5 mph - N/A   Mostly Cloudy
11:03 AM 30.9 °F - 28.0 °F 89% 30.18 in 10.0 mi Calm Calm - N/A   Scattered Clouds
11:53 AM 37.0 °F 34.5 °F 28.9 °F 73% 30.20 in 10.0 mi ESE 3.5 mph - N/A   Clear
12:53 PM 43.0 °F 40.3 °F 27.0 °F 53% 30.15 in 10.0 mi SSW 4.6 mph - N/A   Clear
1:53 PM 48.0 °F - 27.0 °F 44% 30.11 in 10.0 mi Variable 4.6 mph - N/A   Clear
2:53 PM 52.0 °F - 26.1 °F 37% 30.08 in 10.0 mi West 6.9 mph - N/A   Clear
3:53 PM 51.1 °F - 30.0 °F 44% 30.09 in 10.0 mi SSW 11.5 mph - N/A   Clear
4:53 PM 48.0 °F - 28.9 °F 48% 30.09 in 10.0 mi SSW 8.1 mph - N/A   Clear
5:53 PM 41.0 °F 36.4 °F 27.0 °F 57% 30.10 in 10.0 mi SSW 6.9 mph - N/A   Clear
6:53 PM 39.9 °F 33.9 °F 26.1 °F 58% 30.11 in 10.0 mi SW 9.2 mph - N/A   Clear
7:53 PM 36.0 °F 31.1 °F 26.1 °F 67% 30.12 in 10.0 mi SW 5.8 mph - N/A   Clear
8:53 PM 34.0 °F 28.8 °F 26.1 °F 73% 30.13 in 10.0 mi West 5.8 mph - N/A   Clear
9:53 PM 35.1 °F 29.3 °F 27.0 °F 72% 30.12 in 10.0 mi West 6.9 mph - N/A   Clear
10:53 PM 37.9 °F 30.5 °F 30.0 °F 73% 30.11 in 10.0 mi WSW 11.5 mph - N/A   Clear
11:53 PM 35.1 °F 27.9 °F 28.9 °F 78% 30.11 in 10.0 mi WSW 9.2 mph - N/A   Clear